TITAN 3C TRANSTAGE DEB, 43447

Orbit data source: Space-Track

TITAN 3C TRANSTAGE DEB, 43447 is space debris in GEO originally from a launch on Sun, 09 Feb 1969 UTC launched from the Air Force Eastern Test Range (AFETR). Debris objects in space refer to the collection of defunct objects orbiting the Earth. Examples of debris include non-operational satellites, rocket bodies, and fragments generated from explosions, collisions, or faulty payload assembly.

Loading next visibility...
Identifier
43447, 1969-013G
Orbit
GEO
Country
Flag of USUS
Related business
Manufacturer
Martin Marietta
Mission
Spacecraft
Bus & Motor
Unknown
Mass
Unknown
Launch date (UTC)
1969-02-09 (57 years ago)
Launch vehicle
Unknown
Launch site
Air Force Eastern Test Range (AFETR)
Object type
Payload
Rocket body
Debris
Shape & HBR
Unknown shape, 1.1 m
Radar Cross Section
RCS unknown

Expand to show TLE details & history
Last TLE update: 16 hours ago

TLE from 16 hours ago
0 TITAN 3C TRANSTAGE DEB
1 43447U 69013G   26124.82706599 -.00000093  00000-0  00000-0 0  9995
2 43447   1.1701  82.8649 0135312  21.8893 338.3637  0.97140032 28848
Epoch: 2026-05-04T19:50Z
TLE epoch observation values (Epoch: 2026-05-04T19:50:58.501Z)
Latitude
-0.00001°
Longitude
-77.91566°
Altitude
36,147.241 km
Speed
3.081 km/s
True Right ascension
05h 30m 09s
True Declination
0° 00' 00"
Sunlit
Object was in daylight at epoch
Visualization orbit readout
Latitude
Unknown
Longitude
Unknown
Altitude
Unknown
Speed
Unknown
Apparent Right ascension
Unknown
Apparent Declination
Unknown
Sunlit
N/A
Visualization observer readout
Local Sidereal Time
20:03:16
Azimuth
Unknown
Elevation
Unknown
Doppler factor
Unknown
Orbital elements
Apogee altitude
37,271.843 km
Perigee altitude
36,106.34 km
Semi-major axis
43,067.228 km
Eccentricity
0.01353
Inclination
1.1701°
RAAN
82.8649°
Arg. of periapsis
21.8893°
True anomaly
337.78287°
Mean anomaly
338.3637°
Eccentric anomaly
338.07421°
Mean motion
0.24284 °/min
Orbital period
1,482.45 mins
BSTAR
0
Loading maneuver chart data...
Computing Atmospheric mass density...

Documentation

Showing up to 5 results
|